Hourly Data Report for September 26, 2017

All times are specified in Local Standard Time (LST). Add 1 hour to adjust for Daylight Saving Time where and when it is observed.

PETAWAWA AWOS 2
ONTARIO

45°57'00.000" N
77°19'00.000" W
130.10 m
6106396
71625
YWA

Download Data

Hourly Data (September 2017)
Hourly Data Report for September 26, 2017
Temp Definition
°C
Dew Point Temp Definition
°C
Rel Hum Definition
%
Wind Dir Definition
10's deg

Wind Spd Definition
km/h
Visibility Definition
km
Stn Press Definition
kPa
Hmdx Definition


Wind Chill Definition


Weather Definition


TIME
00:00 18.4 17.8 96   0 5.6 100.02     LegendNANA
01:00 18.2 17.6 96   0 6.4 100.04     LegendNANA
02:00 17.1 16.6 97   0 0.8 100.02     LegendNANA
03:00
04:00 16.5 16.2 98   0 0.2 100.04     LegendNANA
05:00 17.1 16.9 99   0 0.0 100.02     LegendNANA
06:00 17.2 17.1 99   0 0.2 100.04     LegendNANA
07:00 17.8 17.6 99   0 0.2 100.06     LegendNANA
08:00 18.8 18.5 98   0 2.3 100.07     LegendNANA
09:00 19.7 19.0 96   0 9.7 100.08     LegendNANA
10:00 21.6 19.5 88 8 6 12.9 100.06 29   LegendNANA
11:00 23.4 20.6 84 11 6 14.5 100.00 31   LegendNANA
12:00 26.5 18.8 63 11 9 14.5 99.96 33   LegendNANA
13:00 28.3 19.2 58 9 9 14.5 99.88 35   LegendNANA
14:00 29.5 21.1 61 11 7 14.5 99.80 38   LegendNANA
15:00 28.3 20.1 61 12 9 14.5 99.74 36   LegendNANA
16:00 29.9 19.6 54 19 11 14.5 99.70 37   LegendNANA
17:00 27.8 19.6 61 12 9 14.5 99.67 35   LegendNANA
18:00 26.8 19.5 64 16 6 14.5 99.65 34   LegendNANA
19:00 23.4 20.3 83   0 14.5 99.64 31   LegendNANA
20:00 21.7 20.1 91   0 12.9 99.63 29   LegendNANA
21:00 21.7 19.4 87   0 14.5 99.60 29   LegendNANA
22:00 20.5 19.2 92 19 4 12.9 99.61 27   LegendNANA
23:00 20.0 19.0 94   0 9.7 99.58 27   LegendNANA

Notes on Data Quality.

Legend

  • E = Estimated
  • M = Missing
  • NA = Not Available
  • ‡ = Partner data that is not subject to review by the National Climate Archives
Date modified: